1496977200.74,60576,17.5,74082.5,-0.29,-28.79,-29.13,0,*64
1496977202.0,60577,17.5,74082.3,-0.29,-28.75,-29.01,0,*6A
1496977203.23,60578,17.5,74082.5,-0.29,-28.59,-28.85,0,*66
1496977204.46,60579,17.5,74078.5,-0.29,-28.59,-28.85,0,*67
1496977205.68,60580,17.5,74080.8,-0.29,-28.75,-28.97,0,*6C
1496977206.94,60581,17.5,74080.3,-0.31,-28.85,-29.01,0,*65
1496977208.17,60582,17.5,74080.0,-0.31,-28.53,-28.85,0,*60
1496977209.42,60583,17.5,74076.8,-0.31,-28.69,-28.91,0,*6D
1496977210.7,60584,17.5,74076.3,-0.31,-28.63,-28.91,0,*60
1496977211.98,60585,17.5,74078.3,-0.31,-28.63,-28.91,0,*61
1496977213.24,60586,17.5,74074.5,-0.31,-28.47,-28.79,0,*62
1496977214.52,60587,17.5,74078.3,-0.31,-28.63,-28.91,0,*63
1496977215.75,60588,17.5,74076.5,-0.29,-28.75,-28.97,0,*64
1496977217.02,60589,17.5,74082.5,-0.27,-28.63,-29.01,0,*62
1496977218.26,60590,17.5,74078.5,-0.29,-28.75,-29.13,0,*60
1496977219.49,60591,17.5,74074.8,-0.29,-28.75,-28.97,0,*6C
1496977220.71,60592,17.5,74078.8,-0.33,-28.75,-29.07,0,*6C
1496977221.98,60593,17.5,74078.8,-0.31,-28.79,-29.01,0,*65
1496977223.22,60594,17.5,74082.3,-0.31,-28.53,-28.85,0,*67
1496977224.47,60595,17.5,74080.8,-0.29,-28.09,-28.47,0,*6E
1496977225.69,60596,17.5,74082.5,-0.29,-28.31,-28.75,0,*67
1496977226.93,60597,17.5,74082.0,-0.29,-28.43,-28.75,0,*63
1496977228.18,60598,17.5,74080.8,-0.29,-28.43,-28.75,0,*6C
1496977229.44,60599,17.5,74080.3,-0.29,-28.25,-28.59,0,*63
1496977230.67,60600,17.5,74082.0,-0.29,-28.15,-28.63,0,*6A
1496977231.92,60601,17.5,74082.0,-0.27,-27.99,-28.31,0,*69
1496977233.15,60602,17.5,74082.0,-0.27,-27.93,-28.31,0,*60
1496977234.43,60603,17.5,74082.5,-0.27,-27.45,-27.83,0,*6C
1496977235.67,60604,17.5,74076.0,-0.27,-27.71,-28.09,0,*61
1496977236.95,60605,17.5,74076.0,-0.27,-28.25,-28.59,0,*6B
1496977238.2,60606,17.5,74076.5,-0.27,-28.31,-28.47,0,*62
1496977239.46,60607,17.5,74078.0,-0.25,-28.21,-28.59,0,*6F
1496977240.69,60608,17.5,74076.3,-0.25,-28.05,-28.37,0,*6E
1496977241.94,60609,17.5,74078.0,-0.23,-28.05,-28.53,0,*6B
1496977243.21,60610,17.5,74074.5,-0.23,-28.21,-28.43,0,*64
1496977244.42,60611,17.5,74074.8,-0.25,-28.37,-28.69,0,*6C
1496977245.64,60612,17.5,74072.3,-0.25,-28.37,-28.75,0,*62
1496977246.89,60613,17.5,74068.0,-0.23,-28.37,-28.75,0,*65
1496977248.14,60614,17.5,74072.0,-0.25,-28.59,-28.91,0,*66
1496977249.36,60615,17.5,74074.0,-0.21,-28.69,-29.01,0,*68
1496977250.61,60616,17.5,74068.8,-0.21,-28.63,-28.91,0,*69
1496977251.86,60617,17.5,74072.8,-0.17,-28.75,-29.07,0,*64
1496977253.08,60618,17.5,74074.5,-0.21,-28.69,-29.01,0,*65
1496977254.35,60619,17.5,74076.5,-0.23,-28.91,-29.13,0,*62
1496977255.6,60620,17.5,74078.5,-0.23,-28.69,-28.91,0,*64
1496977256.85,60621,17.5,74080.5,-0.23,-28.59,-28.97,0,*60
1496977258.09,60622,17.5,74080.5,-0.23,-28.37,-28.75,0,*67
1496977259.34,60623,17.5,74082.5,-0.23,-28.37,-28.75,0,*66
1496977260.56,60624,17.5,74076.0,-0.25,-28.37,-28.75,0,*67
1496977261.84,60625,17.5,74076.3,-0.23,-28.25,-28.59,0,*6D
1496977263.1,60626,17.5,74078.0,-0.23,-28.43,-28.79,0,*6C
1496977264.39,60627,17.5,74080.8,-0.17,-28.63,-28.91,0,*6E
1496977265.63,60628,17.5,74078.3,-0.23,-28.59,-28.97,0,*69
1496977266.89,60629,17.5,74078.5,-0.23,-28.53,-28.91,0,*64
1496977268.14,60630,17.5,74076.5,-0.25,-28.59,-28.91,0,*60
1496977269.39,60631,17.5,74072.5,-0.23,-28.79,-28.97,0,*63
1496977270.63,60632,17.5,74074.3,-0.23,-28.75,-29.07,0,*64
1496977271.88,60633,17.5,74074.5,-0.17,-28.47,-28.85,0,*68
1496977273.12,60634,17.5,74076.0,-0.21,-28.47,-28.75,0,*65
1496977274.35,60635,17.5,74074.5,-0.21,-28.47,-28.75,0,*64
1496977275.6,60636,17.5,74074.8,-0.23,-28.79,-29.07,0,*6C
1496977276.84,60637,17.5,74078.0,-0.23,-28.69,-28.91,0,*62
1496977278.07,60638,17.5,74076.5,-0.25,-28.69,-28.91,0,*6B
1496977279.27,60639,17.5,74078.0,-0.25,-28.69,-28.97,0,*6C
1496977280.54,60640,17.5,74076.5,-0.23,-28.75,-29.13,0,*64
1496977281.76,60641,17.5,74076.5,-0.25,-28.79,-29.07,0,*6A
1496977282.96,60642,17.5,74078.3,-0.25,-28.69,-28.97,0,*60
1496977284.18,60643,17.5,74078.3,-0.21,-28.69,-29.01,0,*6B
1496977285.37,60644,17.5,74078.5,-0.21,-28.85,-29.07,0,*68
1496977286.62,60645,17.5,74078.8,-0.25,-28.79,-29.13,0,*6B
1496977287.9,60646,17.5,74078.0,-0.23,-28.59,-28.91,0,*67
1496977289.14,60647,17.5,74076.0,-0.23,-28.75,-28.97,0,*6E
1496977290.36,60648,17.5,74076.0,-0.25,-28.75,-28.97,0,*67
1496977291.63,60649,17.5,74076.3,-0.23,-28.75,-28.91,0,*66
1496977292.88,60650,17.5,74078.5,-0.23,-28.75,-28.97,0,*68
1496977294.14,60651,17.5,74076.5,-0.23,-28.79,-29.13,0,*68
1496977295.36,60652,17.5,74076.3,-0.23,-28.69,-28.97,0,*67
1496977296.58,60653,17.5,74078.8,-0.23,-28.69,-28.97,0,*66
1496977297.8,60654,17.5,74080.3,-0.25,-28.79,-29.07,0,*6E
1496977299.07,60655,17.5,74082.0,-0.23,-28.79,-29.13,0,*6C
1496977300.29,60656,17.5,74080.3,-0.23,-28.69,-28.97,0,*63
1496977301.53,60657,17.5,74080.3,-0.23,-28.75,-29.07,0,*67
1496977302.77,60658,17.5,74080.0,-0.23,-28.79,-29.07,0,*64
1496977304.02,60659,17.5,74080.5,-0.23,-28.91,-29.07,0,*63
1496977305.26,60660,17.5,74084.0,-0.23,-28.75,-28.97,0,*6B
1496977306.49,60661,17.5,74082.8,-0.25,-28.69,-28.91,0,*67
1496977307.74,60662,17.5,74084.0,-0.25,-28.59,-28.91,0,*67
1496977308.99,60663,17.5,74086.5,-0.23,-28.91,-29.07,0,*6A
1496977310.26,60664,17.5,74086.5,-0.23,-28.91,-29.13,0,*68
1496977311.52,60665,17.5,74082.8,-0.25,-28.59,-28.91,0,*60
1496977312.74,60666,17.5,74084.5,-0.25,-28.69,-28.91,0,*60
1496977314.0,60667,17.5,74084.3,-0.25,-28.75,-28.91,0,*6C
1496977315.22,60668,17.5,74080.0,-0.25,-28.59,-28.97,0,*6B
1496977316.45,60669,17.5,74086.8,-0.25,-28.79,-29.07,0,*60
1496977317.67,60670,17.5,74082.8,-0.25,-28.79,-29.07,0,*68
1496977318.87,60671,17.5,74082.3,-0.25,-28.69,-28.97,0,*60
1496977320.09,60672,17.5,74080.8,-0.23,-28.69,-28.97,0,*65
1496977321.31,60673,17.5,74080.5,-0.25,-28.43,-28.97,0,*6A
1496977322.53,60674,17.5,74084.3,-0.25,-28.75,-29.23,0,*66
1496977323.73,60675,17.5,74078.3,-0.25,-28.97,-29.23,0,*6B
1496977324.98,60676,17.5,74080.3,-0.25,-28.91,-29.13,0,*6D
1496977326.2,60677,17.5,74080.3,-0.25,-28.79,-29.23,0,*69
1496977327.45,60678,17.5,74078.5,-0.25,-28.79,-29.13,0,*65
1496977328.67,60679,17.5,74084.0,-0.25,-28.75,-29.07,0,*6D
1496977329.92,60680,17.5,74086.5,-0.25,-28.91,-29.13,0,*64
1496977331.11,60681,17.5,74080.0,-0.25,-28.69,-29.07,0,*67
1496977332.35,60682,17.5,74082.5,-0.23,-28.75,-28.97,0,*67
1496977333.58,60683,17.5,74086.3,-0.25,-28.69,-28.91,0,*6B
1496977334.83,60684,17.5,74084.8,-0.25,-28.43,-28.79,0,*62
1496977336.07,60685,17.5,74086.0,-0.25,-28.43,-28.79,0,*63
1496977337.29,60686,17.5,74086.0,-0.25,-28.75,-29.07,0,*6D
1496977338.54,60687,17.5,74080.8,-0.25,-28.75,-29.13,0,*69
1496977339.76,60688,17.5,74080.5,-0.25,-28.91,-29.23,0,*6F
1496977340.99,60689,17.5,74076.5,-0.25,-28.79,-29.07,0,*6E
1496977342.25,60690,17.5,74076.0,-0.23,-28.75,-29.13,0,*69
1496977343.45,60691,17.5,74076.3,-0.25,-28.69,-29.07,0,*66
1496977344.65,60692,17.5,74078.0,-0.25,-28.69,-28.97,0,*6D
1496977345.87,60693,17.5,74078.0,-0.25,-28.79,-29.07,0,*65
1496977347.12,60694,17.5,74082.8,-0.25,-28.91,-29.13,0,*61
1496977348.34,60695,17.5,74080.0,-0.25,-28.79,-29.07,0,*63
1496977349.54,60696,17.5,74078.8,-0.25,-28.69,-29.07,0,*61
1496977350.78,60697,17.5,74078.8,-0.25,-28.79,-29.13,0,*64
1496977352.01,60698,17.5,74078.3,-0.25,-28.85,-29.13,0,*68
1496977353.26,60699,17.5,74078.0,-0.25,-28.79,-29.13,0,*6A
1496977354.51,60700,17.5,74076.5,-0.25,-28.91,-29.29,0,*64
1496977355.73,60701,17.5,74076.0,-0.25,-28.91,-29.23,0,*6F
1496977356.99,60702,17.5,74076.3,-0.27,-28.85,-29.35,0,*6C
1496977358.23,60703,17.5,74080.0,-0.27,-28.97,-29.29,0,*63
1496977359.48,60704,17.5,74080.3,-0.27,-28.85,-29.17,0,*6A
1496977360.73,60705,17.5,74080.8,-0.27,-28.85,-29.17,0,*6B
1496977361.98,60706,17.5,74082.5,-0.29,-28.75,-29.01,0,*6E
1496977363.2,60707,17.5,74082.8,-0.29,-28.75,-28.97,0,*61
1496977364.44,60708,17.5,74080.0,-0.29,-28.43,-28.79,0,*6B
1496977365.71,60709,17.5,74078.8,-0.27,-28.43,-28.75,0,*68
1496977366.94,60710,17.5,74076.5,-0.29,-28.47,-28.85,0,*65
1496977368.2,60711,17.5,74076.3,-0.27,-28.43,-28.79,0,*6D
1496977369.45,60712,17.5,74076.3,-0.27,-28.59,-28.97,0,*65
1496977370.72,60713,17.5,74076.5,-0.27,-28.63,-29.01,0,*63
1496977371.95,60714,17.5,74074.8,-0.25,-28.53,-28.91,0,*6D
1496977373.17,60715,17.5,74080.8,-0.25,-28.75,-29.07,0,*66
1496977374.4,60716,17.5,74082.0,-0.25,-28.53,-28.79,0,*69
1496977375.65,60717,17.5,74078.8,-0.25,-28.09,-28.43,0,*6E
1496977376.9,60718,17.5,74074.8,-0.23,-28.25,-28.53,0,*68
1496977378.13,60719,17.5,74074.5,-0.25,-28.37,-28.79,0,*64
1496977379.37,60720,17.5,74076.3,-0.25,-28.43,-28.79,0,*6D
1496977380.62,60721,17.5,74082.3,-0.25,-28.43,-28.75,0,*60
1496977381.86,60722,17.5,74086.0,-0.25,-28.43,-28.79,0,*6F
1496977383.09,60723,17.5,74084.8,-0.25,-28.53,-28.79,0,*6F
1496977384.32,60724,17.5,74080.3,-0.25,-28.53,-28.91,0,*6E
1496977385.56,60725,17.5,74076.3,-0.25,-28.43,-28.79,0,*68
1496977386.81,60726,17.5,74076.3,-0.25,-28.59,-28.79,0,*60
1496977388.01,60727,17.5,74078.3,-0.25,-28.69,-28.97,0,*62
1496977389.23,60728,17.5,74076.0,-0.25,-28.75,-29.07,0,*68
1496977390.5,60729,17.5,74076.3,-0.23,-28.91,-29.13,0,*60
1496977391.72,60730,17.5,74076.0,-0.25,-28.79,-29.07,0,*6D
1496977392.95,60731,17.5,74080.0,-0.25,-28.75,-28.97,0,*68
1496977394.19,60732,17.5,74078.8,-0.23,-28.75,-29.07,0,*65
1496977395.43,60733,17.5,74078.0,-0.25,-28.75,-29.13,0,*67
1496977396.67,60734,17.5,74078.5,-0.23,-28.75,-29.07,0,*63
1496977397.89,60735,17.5,74078.5,-0.25,-28.69,-29.13,0,*6C
1496977399.15,60736,17.5,74086.5,-0.23,-28.75,-29.13,0,*64
1496977400.35,60737,17.5,74080.8,-0.25,-28.69,-29.07,0,*6B
1496977401.57,60738,17.5,74086.3,-0.25,-28.69,-29.13,0,*61
1496977402.82,60739,17.5,74084.0,-0.25,-28.75,-29.13,0,*6D
1496977404.06,60740,17.5,74084.0,-0.25,-28.75,-29.13,0,*63
1496977405.28,60741,17.5,74084.3,-0.25,-28.91,-29.23,0,*6B
1496977406.53,60742,17.5,74086.0,-0.27,-28.97,-29.29,0,*66
1496977407.8,60743,17.5,74084.5,-0.27,-28.75,-29.01,0,*61
1496977409.05,60744,17.5,74082.5,-0.27,-28.59,-28.85,0,*65
1496977410.3,60745,17.5,74078.8,-0.25,-28.59,-28.79,0,*65
1496977411.57,60746,17.5,74080.8,-0.27,-28.63,-29.01,0,*63
1496977412.84,60747,17.5,74082.5,-0.27,-28.75,-29.01,0,*65
1496977414.09,60748,17.5,74080.0,-0.27,-28.59,-28.97,0,*6A
1496977415.33,60749,17.5,74080.5,-0.25,-28.43,-28.79,0,*62
1496977416.61,60750,17.5,74078.0,-0.27,-28.63,-29.01,0,*64
1496977417.83,60751,17.5,74078.0,-0.25,-28.59,-28.97,0,*60
1496977419.08,60752,17.5,74080.0,-0.25,-28.75,-29.13,0,*60
1496977420.35,60753,17.5,74078.3,-0.23,-28.59,-28.91,0,*62
1496977421.6,60754,17.5,74076.8,-0.25,-28.59,-28.79,0,*65
1496977422.83,60755,17.5,74078.0,-0.25,-28.25,-28.69,0,*6E
1496977424.06,60756,17.5,74078.3,-0.25,-28.37,-28.79,0,*6F
1496977425.31,60757,17.5,74074.5,-0.25,-28.59,-28.91,0,*60
1496977426.51,60758,17.5,74076.5,-0.25,-28.69,-28.97,0,*6A
1496977427.71,60759,17.5,74078.5,-0.25,-28.69,-28.97,0,*6B
1496977428.91,60760,17.5,74080.3,-0.25,-28.69,-28.97,0,*61
1496977430.14,60761,17.5,74080.3,-0.25,-28.69,-28.91,0,*66
1496977431.36,60762,17.5,74082.3,-0.25,-28.43,-28.97,0,*6B
1496977432.59,60763,17.5,74078.5,-0.25,-28.53,-28.91,0,*6D
1496977433.8,60764,17.5,74082.3,-0.25,-28.37,-28.69,0,*6F
1496977435.05,60765,17.5,74076.5,-0.25,-28.25,-28.59,0,*6E
1496977436.32,60766,17.5,74078.0,-0.23,-28.43,-28.79,0,*69
1496977437.57,60767,17.5,74076.5,-0.25,-28.25,-28.75,0,*62
1496977438.82,60768,17.5,74076.0,-0.23,-28.37,-28.79,0,*64
1496977440.09,60769,17.5,74076.8,-0.23,-28.25,-28.59,0,*64
1496977441.37,60770,17.5,74078.3,-0.23,-28.25,-28.59,0,*6C
1496977442.6,60771,17.5,74076.0,-0.25,-28.25,-28.69,0,*68
1496977443.83,60772,17.5,74078.0,-0.23,-28.37,-28.69,0,*6E
1496977445.06,60773,17.5,74080.0,-0.25,-28.05,-28.37,0,*63
1496977446.31,60774,17.5,74080.3,-0.23,-28.21,-28.53,0,*66
1496977447.59,60775,17.5,74082.5,-0.23,-28.21,-28.59,0,*6D
1496977448.84,60776,17.5,74080.3,-0.25,-28.09,-28.59,0,*62
1496977450.09,60777,17.5,74080.3,-0.23,-28.09,-28.53,0,*6F
1496977451.38,60778,17.5,74076.3,-0.17,-27.99,-28.63,0,*62
1496977452.59,60779,17.5,74074.8,-0.21,-28.31,-28.75,0,*6C
1496977453.81,60780,17.5,74072.3,-0.21,-28.47,-28.85,0,*64
1496977455.09,60781,17.5,74076.3,-0.17,-28.63,-28.91,0,*63
1496977456.35,60782,17.5,74076.3,-0.17,-28.69,-28.91,0,*6A
1496977457.57,60783,17.5,74082.3,-0.21,-28.53,-29.01,0,*6F
1496977458.79,60784,17.5,74080.5,-0.21,-28.31,-28.75,0,*6E
1496977459.99,60785,17.5,74082.5,-0.21,-28.31,-28.69,0,*62
1496977461.23,60786,17.5,74076.8,-0.17,-28.31,-28.75,0,*69
1496977462.49,60787,17.5,74076.5,-0.17,-28.47,-28.85,0,*66
1496977463.74,60788,17.5,74078.8,-0.17,-28.47,-28.85,0,*69
1496977464.96,60789,17.5,74076.5,-0.21,-28.47,-28.85,0,*6D
1496977466.19,60790,17.5,74078.3,-0.21,-28.69,-28.91,0,*6C
1496977467.47,60791,17.5,74078.0,-0.17,-28.63,-29.01,0,*6A
1496977468.75,60792,17.5,74076.0,-0.17,-28.63,-28.91,0,*61
1496977469.94,60793,17.5,74080.8,-0.21,-28.69,-29.07,0,*61
1496977471.13,60794,17.5,74082.0,-0.21,-28.69,-29.07,0,*66
1496977472.42,60795,17.5,74082.3,-0.17,-28.63,-28.91,0,*66
1496977473.66,60796,17.5,74078.5,-0.21,-28.75,-29.17,0,*68
1496977474.85,60797,17.5,74076.8,-0.21,-28.85,-29.23,0,*61
1496977476.05,60798,17.5,74072.8,-0.21,-28.85,-29.23,0,*6E
1496977477.3,60799,17.5,74072.0,-0.17,-28.91,-29.23,0,*6F
1496977478.52,60800,17.5,74074.3,-0.15,-28.97,-29.13,0,*67
1496977479.74,60801,17.5,74068.5,-0.21,-28.85,-29.17,0,*66
1496977480.93,60802,17.5,74074.3,-0.21,-28.69,-29.07,0,*66
1496977482.15,60803,17.5,74078.3,-0.21,-28.75,-29.07,0,*6A
1496977483.34,60804,17.5,74076.3,-0.21,-28.85,-29.07,0,*62
1496977484.56,60805,17.5,74072.3,-0.21,-28.91,-29.23,0,*60
1496977485.78,60806,17.5,74074.8,-0.21,-28.75,-29.23,0,*69
1496977487.02,60807,17.5,74074.8,-0.21,-28.75,-28.91,0,*60
1496977488.27,60808,17.5,74076.3,-0.21,-28.63,-28.91,0,*68
1496977489.5,60809,17.5,74076.0,-0.21,-28.63,-28.85,0,*6C
1496977490.76,60810,17.5,74076.0,-0.23,-28.79,-29.13,0,*63
1496977492.01,60811,17.5,74080.0,-0.21,-28.75,-29.01,0,*6F
1496977493.26,60812,17.5,74078.3,-0.21,-28.63,-29.01,0,*6B
1496977494.48,60813,17.5,74076.5,-0.21,-28.69,-29.01,0,*60
1496977495.67,60814,17.5,74082.0,-0.21,-28.85,-29.07,0,*63
1496977496.92,60815,17.5,74082.3,-0.21,-28.75,-29.01,0,*6B
1496977498.11,60816,17.5,74080.3,-0.21,-28.85,-29.07,0,*61
1496977499.3,60817,17.5,74084.5,-0.21,-28.85,-29.23,0,*66
1496977500.57,60818,17.5,74082.8,-0.23,-28.91,-29.29,0,*64
1496977501.85,60819,17.5,74080.5,-0.23,-28.91,-29.13,0,*6C
1496977503.11,60820,17.5,74078.0,-0.23,-28.79,-29.13,0,*60
1496977504.36,60821,17.5,74082.5,-0.25,-28.79,-29.13,0,*67
1496977505.6,60822,17.5,74080.5,-0.23,-28.91,-29.23,0,*67
1496977506.87,60823,17.5,74076.8,-0.23,-28.75,-29.13,0,*6F
1496977508.13,60824,17.5,74080.0,-0.23,-28.79,-29.13,0,*64
1496977509.35,60825,17.5,74078.3,-0.23,-28.97,-29.23,0,*66
1496977510.57,60826,17.5,74078.3,-0.23,-28.97,-29.23,0,*65
1496977511.79,60827,17.5,74078.8,-0.25,-28.97,-29.29,0,*68
1496977513.0,60828,17.5,74076.0,-0.23,-28.97,-29.23,0,*6B
1496977514.25,60829,17.5,74076.3,-0.23,-28.91,-29.23,0,*6C
1496977515.52,60830,17.5,74080.8,-0.23,-28.91,-29.13,0,*67
1496977516.77,60831,17.5,74080.0,-0.25,-28.91,-29.13,0,*60
1496977518.04,60832,17.5,74078.0,-0.23,-28.91,-29.13,0,*65
1496977519.31,60833,17.5,74078.3,-0.23,-28.91,-29.13,0,*64
1496977520.53,60834,17.5,74082.0,-0.25,-28.79,-29.07,0,*66
1496977521.8,60835,17.5,74080.5,-0.23,-28.79,-29.13,0,*64
1496977523.02,60836,17.5,74080.5,-0.25,-28.79,-29.07,0,*64
1496977524.27,60837,17.5,74082.5,-0.27,-28.75,-28.97,0,*63
1496977525.51,60838,17.5,74076.3,-0.23,-28.75,-29.07,0,*60
1496977526.7,60839,17.5,74082.0,-0.25,-28.69,-29.07,0,*6A
1496977527.9,60840,17.5,74080.8,-0.25,-28.69,-28.97,0,*6C
1496977529.15,60841,17.5,74080.5,-0.25,-28.59,-28.79,0,*6E
1496977530.43,60842,17.5,74078.5,-0.27,-28.25,-28.63,0,*6F
1496977531.68,60843,17.5,74078.3,-0.25,-28.43,-28.79,0,*67
1496977532.94,60844,17.5,74078.3,-0.23,-28.75,-29.13,0,*6E
1496977534.17,60845,17.5,74078.0,-0.25,-28.91,-29.23,0,*60
1496977535.41,60846,17.5,74076.5,-0.25,-28.79,-29.13,0,*66
1496977536.66,60847,17.5,74078.3,-0.23,-28.79,-29.07,0,*64
1496977537.88,60848,17.5,74076.3,-0.25,-28.75,-29.07,0,*61
1496977539.13,60849,17.5,74076.8,-0.25,-28.59,-28.91,0,*60
1496977540.35,60850,17.5,74072.5,-0.25,-28.59,-29.07,0,*66
1496977541.57,60851,17.5,74074.3,-0.25,-28.75,-29.07,0,*69
1496977542.81,60852,17.5,74076.3,-0.23,-28.75,-29.07,0,*6C
1496977544.03,60853,17.5,74076.5,-0.23,-28.69,-29.07,0,*60
1496977545.3,60854,17.5,74076.5,-0.23,-28.79,-29.13,0,*63
1496977546.55,60855,17.5,74076.3,-0.25,-28.91,-29.13,0,*62
1496977547.8,60856,17.5,74078.3,-0.25,-28.91,-29.13,0,*61
1496977549.0,60857,17.5,74076.0,-0.25,-28.69,-28.97,0,*6A
1496977550.22,60858,17.5,74076.0,-0.25,-28.75,-29.07,0,*60
1496977551.44,60859,17.5,74078.3,-0.25,-28.75,-28.97,0,*69
1496977552.67,60860,17.5,74076.3,-0.25,-28.59,-28.97,0,*6D
1496977553.89,60861,17.5,74072.5,-0.25,-28.69,-29.13,0,*62
1496977555.15,60862,17.5,74076.5,-0.27,-28.79,-29.13,0,*62
1496977556.4,60863,17.5,74078.5,-0.25,-28.91,-29.13,0,*67
1496977557.63,60864,17.5,74076.8,-0.25,-28.91,-29.07,0,*65
1496977558.87,60865,17.5,74082.3,-0.27,-28.97,-29.17,0,*61
1496977560.12,60866,17.5,74082.0,-0.27,-28.85,-29.17,0,*61
1496977561.39,60867,17.5,74078.8,-0.27,-28.79,-29.13,0,*67
1496977562.62,60868,17.5,74080.8,-0.29,-28.43,-28.85,0,*61
1496977563.85,60869,17.5,74080.3,-0.25,-28.69,-28.91,0,*61
1496977565.07,60870,17.5,74084.0,-0.25,-28.75,-28.97,0,*62
1496977566.3,60871,17.5,74080.8,-0.25,-28.53,-28.79,0,*67
1496977567.56,60872,17.5,74080.5,-0.27,-28.47,-28.79,0,*63
1496977568.8,60873,17.5,74080.8,-0.27,-28.47,-28.85,0,*61
1496977570.05,60874,17.5,74080.3,-0.27,-28.63,-28.97,0,*63
1496977571.31,60875,17.5,74082.0,-0.25,-28.59,-28.91,0,*6F
1496977572.55,60876,17.5,74082.5,-0.27,-28.63,-28.97,0,*61
1496977573.8,60877,17.5,74082.8,-0.27,-28.59,-28.85,0,*6A
1496977575.05,60878,17.5,74080.8,-0.27,-28.63,-28.97,0,*6F
1496977576.31,60879,17.5,74076.0,-0.25,-28.59,-28.91,0,*63
1496977577.53,60880,17.5,74078.3,-0.25,-28.69,-28.91,0,*66
1496977578.74,60881,17.5,74080.5,-0.25,-28.53,-28.97,0,*68
1496977579.96,60882,17.5,74080.0,-0.25,-28.75,-29.07,0,*67
1496977581.18,60883,17.5,74080.5,-0.25,-28.75,-29.07,0,*66
1496977582.4,60884,17.5,74080.8,-0.25,-28.75,-29.07,0,*61
1496977583.64,60885,17.5,74078.3,-0.25,-28.79,-29.13,0,*69
1496977584.89,60886,17.5,74076.8,-0.25,-28.79,-29.13,0,*6A
1496977586.14,60887,17.5,74076.5,-0.25,-28.91,-29.13,0,*6D
1496977587.4,60888,17.5,74074.3,-0.25,-28.59,-28.91,0,*6D
1496977588.64,60889,17.5,74080.0,-0.25,-28.43,-28.79,0,*61
1496977589.87,60890,17.5,74076.0,-0.25,-28.53,-28.79,0,*68
1496977591.09,60891,17.5,74078.5,-0.25,-28.75,-29.23,0,*63
1496977592.33,60892,17.5,74080.0,-0.27,-28.97,-29.17,0,*69
1496977593.58,60893,17.5,74080.0,-0.27,-28.85,-29.01,0,*6C
1496977594.85,60894,17.5,74082.8,-0.27,-28.79,-29.01,0,*68
1496977596.1,60895,17.5,74080.3,-0.27,-28.85,-29.13,0,*69
1496977597.34,60896,17.5,74080.0,-0.27,-28.97,-29.13,0,*69
1496977598.58,60897,17.5,74082.5,-0.27,-28.97,-29.17,0,*6C
1496977599.83,60898,17.5,74082.8,-0.27,-28.85,-29.17,0,*60
1496977601.08,60899,17.5,74080.0,-0.29,-28.75,-29.17,0,*60
1496977602.31,60900,17.5,74084.5,-0.29,-28.63,-28.97,0,*6F
1496977603.56,60901,17.5,74080.3,-0.29,-28.75,-29.01,0,*67
1496977604.81,60902,17.5,74086.0,-0.27,-28.31,-28.63,0,*6F
1496977606.08,60903,17.5,74082.0,-0.27,-28.09,-28.59,0,*6C
1496977607.33,60904,17.5,74080.3,-0.27,-28.15,-28.47,0,*69
1496977608.56,60905,17.5,74080.5,-0.25,-28.21,-28.53,0,*68
1496977609.81,60906,17.5,74076.8,-0.25,-28.25,-28.79,0,*67
1496977611.06,60907,17.5,74078.8,-0.25,-28.59,-28.79,0,*6D
1496977612.29,60908,17.5,74076.0,-0.25,-28.59,-28.97,0,*62
1496977613.52,60909,17.5,74080.0,-0.25,-28.53,-28.91,0,*6F
1496977614.75,60910,17.5,74080.0,-0.25,-28.53,-28.91,0,*67
1496977616.0,60911,17.5,74078.5,-0.23,-28.59,-28.97,0,*6C
1496977617.23,60912,17.5,74078.3,-0.25,-28.53,-28.91,0,*65
1496977618.42,60913,17.5,74074.5,-0.25,-28.69,-29.07,0,*63
1496977619.64,60914,17.5,74078.3,-0.25,-28.75,-29.23,0,*6F
1496977620.9,60915,17.5,74076.5,-0.25,-28.91,-29.29,0,*6E
1496977622.12,60916,17.5,74074.8,-0.25,-28.91,-29.23,0,*67
1496977623.32,60917,17.5,74076.5,-0.25,-28.69,-29.07,0,*67
1496977624.57,60918,17.5,74082.0,-0.27,-28.85,-29.17,0,*69
1496977625.81,60919,17.5,74076.3,-0.27,-28.85,-29.29,0,*65
1496977627.09,60920,17.5,74080.5,-0.27,-28.79,-29.01,0,*66
1496977628.31,60921,17.5,74078.5,-0.25,-28.79,-29.23,0,*65
1496977629.56,60922,17.5,74078.8,-0.25,-28.79,-29.13,0,*65
1496977630.78,60923,17.5,74078.3,-0.25,-28.79,-29.07,0,*61
1496977632.04,60924,17.5,74078.3,-0.27,-28.79,-29.13,0,*61
1496977633.31,60925,17.5,74078.5,-0.27,-28.79,-29.13,0,*60
1496977634.58,60926,17.5,74082.0,-0.27,-28.79,-29.13,0,*63
1496977635.85,60927,17.5,74082.0,-0.27,-28.79,-29.17,0,*66
1496977637.09,60928,17.5,74080.0,-0.27,-28.85,-29.13,0,*6E
1496977638.33,60929,17.5,74080.3,-0.23,-28.75,-29.07,0,*61
1496977639.56,60930,17.5,74082.5,-0.29,-28.63,-28.97,0,*6C
1496977640.8,60931,17.5,74082.5,-0.27,-28.75,-28.97,0,*64
1496977642.04,60932,17.5,74084.8,-0.29,-28.59,-28.85,0,*64
1496977643.31,60933,17.5,74082.5,-0.27,-28.25,-28.59,0,*61
1496977644.56,60934,17.5,74082.0,-0.27,-28.47,-28.85,0,*63
1496977645.81,60935,17.5,74082.0,-0.27,-28.47,-28.85,0,*62
1496977647.05,60936,17.5,74078.5,-0.27,-28.47,-28.97,0,*62
1496977648.3,60937,17.5,74076.0,-0.25,-28.59,-28.91,0,*68
1496977649.52,60938,17.5,74076.8,-0.25,-28.69,-29.13,0,*6F
1496977650.77,60939,17.5,74078.8,-0.25,-28.75,-29.13,0,*63
1496977651.99,60940,17.5,74076.8,-0.25,-28.79,-29.23,0,*62
1496977653.23,60941,17.5,74078.3,-0.27,-28.85,-29.29,0,*68
1496977654.5,60942,17.5,74078.5,-0.27,-28.79,-29.13,0,*61
1496977655.77,60943,17.5,74076.5,-0.27,-28.79,-29.13,0,*60
1496977657.04,60944,17.5,74076.5,-0.27,-28.79,-29.01,0,*64
1496977658.28,60945,17.5,74082.8,-0.27,-28.75,-28.97,0,*67
1496977659.54,60946,17.5,74082.5,-0.27,-28.59,-28.85,0,*69
1496977660.81,60947,17.5,74082.0,-0.27,-28.79,-29.01,0,*67
1496977662.06,60948,17.5,74082.3,-0.29,-28.75,-29.01,0,*6A
1496977663.31,60949,17.5,74080.8,-0.29,-28.79,-29.13,0,*64
1496977664.56,60950,17.5,74080.8,-0.27,-28.85,-29.17,0,*65
1496977665.81,60951,17.5,74082.8,-0.27,-28.59,-28.85,0,*6F
1496977667.05,60952,17.5,74080.5,-0.27,-28.47,-28.85,0,*63
1496977668.33,60953,17.5,74078.8,-0.27,-28.59,-29.01,0,*60
1496977669.59,60954,17.5,74076.8,-0.27,-28.75,-29.13,0,*6A
1496977670.86,60955,17.5,74080.5,-0.27,-28.79,-29.17,0,*63
1496977672.09,60956,17.5,74080.0,-0.25,-28.91,-29.23,0,*63
1496977673.32,60957,17.5,74080.3,-0.25,-28.91,-29.23,0,*62
1496977674.57,60958,17.5,74076.5,-0.27,-29.01,-29.45,0,*67
1496977675.82,60959,17.5,74082.3,-0.27,-29.01,-29.45,0,*66
1496977677.07,60960,17.5,74082.8,-0.27,-28.85,-29.29,0,*6B
1496977678.3,60961,17.5,74084.5,-0.29,-28.85,-29.35,0,*69
1496977679.57,60962,17.5,74082.0,-0.27,-28.63,-29.01,0,*6B
1496977680.84,60963,17.5,74078.3,-0.27,-28.75,-29.01,0,*6D
1496977682.12,60964,17.5,74076.8,-0.27,-28.79,-29.17,0,*61
1496977683.38,60965,17.5,74076.5,-0.27,-28.79,-29.13,0,*64
1496977684.61,60966,17.5,74076.8,-0.25,-28.59,-28.97,0,*6A
1496977685.83,60967,17.5,74082.3,-0.29,-28.59,-28.97,0,*67
1496977687.08,60968,17.5,74078.8,-0.27,-28.63,-28.97,0,*6F
1496977688.35,60969,17.5,74080.5,-0.27,-28.79,-29.01,0,*6B
1496977689.61,60970,17.5,74080.8,-0.25,-28.75,-28.91,0,*65
1496977690.83,60971,17.5,74080.3,-0.29,-28.63,-28.97,0,*69
1496977692.08,60972,17.5,74082.5,-0.27,-28.63,-28.97,0,*64
1496977693.32,60973,17.5,74078.0,-0.27,-28.47,-28.85,0,*60
1496977694.58,60974,17.5,74080.3,-0.27,-28.63,-28.85,0,*61
1496977695.8,60975,17.5,74080.8,-0.29,-28.63,-28.97,0,*6D
1496977697.05,60976,17.5,74080.3,-0.27,-28.59,-28.97,0,*69
1496977698.3,60977,17.5,74080.0,-0.27,-28.63,-28.97,0,*61
1496977699.57,60978,17.5,74076.5,-0.27,-28.79,-29.01,0,*6B
1496977700.82,60979,17.5,74078.3,-0.29,-28.79,-29.17,0,*63
1496977702.07,60980,17.5,74078.0,-0.29,-28.79,-29.13,0,*61
1496977703.31,60981,17.5,74078.8,-0.29,-28.79,-29.13,0,*60
1496977704.58,60982,17.5,74080.3,-0.27,-28.79,-29.13,0,*6D